| time (UTC) | temp F | wind direction | speed knots | gust knots | rain 1hr in | rain 24hr in | rain mn in | humidity % | barometer mb |
| 20260504001559 | 74 | 0 | 0.0 | 3.5 | 0.00 | 0.00 | 0.00 | 51 | 1009.5 |
| 20260504000041 | 75 | 0 | 0.0 | 2.6 | 0.00 | 0.00 | 0.00 | 50 | 1009.6 |
| 20260503234544 | 75 | 0 | 0.0 | 3.5 | 0.00 | 0.00 | 0.00 | 50 | 1009.8 |
| 20260503233045 | 77 | 19 | 0.9 | 2.6 | 0.00 | 0.00 | 0.00 | 48 | 1009.8 |
| 20260503231552 | 77 | 178 | 0.9 | 4.3 | 0.00 | 0.00 | 0.00 | 47 | 1010.0 |
| 20260503230059 | 77 | 325 | 0.0 | 5.2 | 0.00 | 0.00 | 0.00 | 44 | 1010.2 |
| 20260503224549 | 76 | 349 | 0.9 | 3.5 | 0.00 | 0.00 | 0.00 | 46 | 1010.6 |
| 20260503223043 | 76 | 42 | 0.9 | 7.8 | 0.00 | 0.00 | 0.00 | 48 | 1010.6 |
| 20260503221544 | 76 | 123 | 1.7 | 6.1 | 0.00 | 0.00 | 0.00 | 50 | 1010.9 |
| 20260503220045 | 76 | 0 | 0.9 | 8.7 | 0.00 | 0.00 | 0.00 | 49 | 1011.2 |
| 20260503214554 | 76 | 335 | 0.0 | 7.0 | 0.00 | 0.00 | 0.00 | 49 | 1011.3 |
| 20260503213133 | 76 | 331 | 0.9 | 7.8 | 0.00 | 0.00 | 0.00 | 51 | 1011.3 |
| 20260503211618 | 76 | 313 | 0.9 | 3.5 | 0.00 | 0.00 | 0.00 | 48 | 1011.3 |
| 20260503210044 | 75 | 338 | 0.9 | 6.1 | 0.00 | 0.00 | 0.00 | 48 | 1011.6 |
| 20260503204558 | 74 | 0 | 0.9 | 5.2 | 0.00 | 0.00 | 0.00 | 49 | 1011.6 |
| 20260503203042 | 75 | 0 | 0.9 | 7.0 | 0.00 | 0.00 | 0.00 | 49 | 1011.8 |
| 20260503201542 | 74 | 29 | 0.9 | 5.2 | 0.00 | 0.00 | 0.00 | 48 | 1011.9 |
| 20260503200048 | 74 | 298 | 0.9 | 5.2 | 0.00 | 0.00 | 0.00 | 51 | 1012.1 |
| 20260503194546 | 73 | 327 | 0.9 | 7.0 | 0.00 | 0.00 | 0.00 | 52 | 1012.2 |
| 20260503193042 | 73 | 325 | 0.9 | 4.3 | 0.00 | 0.00 | 0.00 | 54 | 1012.4 |
| 20260503191557 | 73 | 317 | 0.9 | 3.5 | 0.00 | 0.00 | 0.00 | 54 | 1012.6 |
| 20260503190044 | 72 | 0 | 0.9 | 7.8 | 0.00 | 0.00 | 0.00 | 53 | 1012.9 |
| 20260503184605 | 72 | 318 | 0.9 | 6.1 | 0.00 | 0.00 | 0.00 | 54 | 1012.9 |
| 20260503183048 | 72 | 0 | 0.9 | 4.3 | 0.00 | 0.00 | 0.00 | 54 | 1013.2 |
| 20260503181547 | 71 | 26 | 0.0 | 4.3 | 0.00 | 0.00 | 0.00 | 57 | 1013.1 |
| 20260503180045 | 69 | 289 | 0.9 | 5.2 | 0.00 | 0.00 | 0.00 | 61 | 1013.3 |
| 20260503174555 | 68 | 94 | 0.9 | 3.5 | 0.00 | 0.00 | 0.00 | 62 | 1013.3 |
| 20260503173051 | 68 | 0 | 0.0 | 2.6 | 0.00 | 0.00 | 0.00 | 63 | 1013.5 |
| 20260503171547 | 67 | 0 | 0.0 | 2.6 | 0.00 | 0.00 | 0.00 | 65 | 1013.4 |
| 20260503081556 | 61 | 13 | 0.0 | 1.7 | 0.00 | 0.00 | 0.00 | 63 | 1013.7 |
| 20260503071604 | 63 | 350 | 0.0 | 5.2 | 0.00 | 0.00 | 0.00 | 59 | 1013.6 |
| 20260503054554 | 65 | 9 | 0.0 | 3.5 | 0.00 | 0.00 | 0.00 | 56 | 1013.4 |
| 20260503053045 | 65 | 0 | 0.9 | 4.3 | 0.00 | 0.00 | 0.00 | 55 | 1013.4 |
| 20260503051551 | 65 | 349 | 0.0 | 5.2 | 0.00 | 0.00 | 0.00 | 54 | 1013.4 |
| 20260503050056 | 65 | 345 | 0.0 | 3.5 | 0.00 | 0.00 | 0.00 | 55 | 1013.3 |
| 20260503044544 | 66 | 46 | 0.0 | 3.5 | 0.00 | 0.00 | 0.00 | 54 | 1013.4 |
| 20260503043046 | 66 | 346 | 0.9 | 5.2 | 0.00 | 0.00 | 0.00 | 54 | 1013.2 |
| 20260503041546 | 67 | 333 | 0.9 | 7.0 | 0.00 | 0.00 | 0.00 | 54 | 1013.1 |
| 20260503040046 | 67 | 339 | 1.7 | 4.3 | 0.00 | 0.00 | 0.00 | 54 | 1013.0 |
| 20260503034551 | 67 | 5 | 1.7 | 8.7 | 0.00 | 0.00 | 0.00 | 55 | 1012.8 |
| 20260503033055 | 67 | 335 | 0.0 | 7.0 | 0.00 | 0.00 | 0.00 | 56 | 1012.6 |
| 20260503031541 | 67 | 17 | 2.6 | 7.8 | 0.00 | 0.00 | 0.00 | 57 | 1012.5 |
| 20260503030045 | 68 | 0 | 1.7 | 9.6 | 0.00 | 0.00 | 0.00 | 56 | 1012.4 |
| 20260503024549 | 68 | 349 | 2.6 | 8.7 | 0.00 | 0.00 | 0.00 | 57 | 1012.1 |
| 20260503023050 | 68 | 333 | 2.6 | 8.7 | 0.00 | 0.00 | 0.00 | 57 | 1012.1 |
| 20260503021543 | 69 | 114 | 1.7 | 12.2 | 0.00 | 0.00 | 0.00 | 56 | 1012.1 |
| 20260503020047 | 69 | 329 | 1.7 | 9.6 | 0.00 | 0.00 | 0.00 | 55 | 1012.1 |
| 20260503014601 | 69 | 263 | 0.9 | 7.8 | 0.00 | 0.00 | 0.00 | 55 | 1012.3 |
| 20260503013047 | 69 | 338 | 2.6 | 11.3 | 0.00 | 0.00 | 0.00 | 55 | 1012.4 |
| 20260503011600 | 70 | 329 | 1.7 | 10.4 | 0.00 | 0.00 | 0.00 | 54 | 1012.5 |
| 20260503010040 | 70 | 146 | 3.5 | 12.2 | 0.00 | 0.00 | 0.00 | 54 | 1012.5 |
| 20260503004541 | 70 | 28 | 1.7 | 7.8 | 0.00 | 0.00 | 0.00 | 56 | 1012.5 |
| 20260503003045 | 70 | 13 | 2.6 | 11.3 | 0.00 | 0.00 | 0.00 | 54 | 1012.7 |